PRIVATE WETTERSTATION BILLIGHEIM-ALLFELD                       ZURCK
Wetterdaten: Mittwoch, 14.06.2017
Datum Zeit Temp. A. Temp. A. min Temp. A. max Feuchte A. Luftdruck Regen Wind Richtung Richtung Sonnenschein ET Solar Taupunkt Windchill Windben Empfang
14.06.2017 00:00 14,2 C 14,2 C 14,3 C 81 % 1017,8 hPa 0,0 l/m 0,0 km/h (0 Bft) N 0 0 min 0,025 mm 0 W/m 11,0 C 14,2 C 0,0 km/h (0 Bft) 98 %
14.06.2017 00:10 14,0 C 14,0 C 14,2 C 82 % 1017,8 hPa 0,0 l/m 0,0 km/h (0 Bft) N 0 0 min 0,000 mm 0 W/m 11,0 C 14,0 C 0,0 km/h (0 Bft) 98 %
14.06.2017 00:20 13,8 C 13,8 C 14,0 C 82 % 1017,8 hPa 0,0 l/m 0,0 km/h (0 Bft) N 0 0 min 0,000 mm 0 W/m 10,8 C 13,8 C 0,0 km/h (0 Bft) 98 %
14.06.2017 00:30 13,7 C 13,6 C 13,8 C 82 % 1017,9 hPa 0,0 l/m 0,0 km/h (0 Bft) N 0 0 min 0,000 mm 0 W/m 10,7 C 13,7 C 0,0 km/h (0 Bft) 98 %
14.06.2017 00:40 13,4 C 13,4 C 13,7 C 83 % 1017,8 hPa 0,0 l/m 0,0 km/h (0 Bft) N 0 0 min 0,000 mm 0 W/m 10,6 C 13,4 C 0,0 km/h (0 Bft) 97 %
14.06.2017 00:50 13,3 C 13,3 C 13,4 C 83 % 1017,7 hPa 0,0 l/m 0,0 km/h (0 Bft) N 0 0 min 0,000 mm 0 W/m 10,5 C 13,3 C 0,0 km/h (0 Bft) 98 %
14.06.2017 01:00 13,1 C 13,1 C 13,3 C 84 % 1017,8 hPa 0,0 l/m 0,0 km/h (0 Bft) N 0 0 min 0,025 mm 0 W/m 10,5 C 13,1 C 0,0 km/h (0 Bft) 97 %
14.06.2017 01:10 12,9 C 12,9 C 13,1 C 85 % 1017,9 hPa 0,0 l/m 0,0 km/h (0 Bft) N 0 0 min 0,000 mm 0 W/m 10,4 C 12,9 C 0,0 km/h (0 Bft) 98 %
14.06.2017 01:20 12,7 C 12,7 C 12,9 C 86 % 1017,8 hPa 0,0 l/m 0,0 km/h (0 Bft) N 0 0 min 0,000 mm 0 W/m 10,4 C 12,7 C 0,0 km/h (0 Bft) 98 %
14.06.2017 01:30 12,6 C 12,6 C 12,7 C 86 % 1017,9 hPa 0,0 l/m 0,0 km/h (0 Bft) N 0 0 min 0,000 mm 0 W/m 10,3 C 12,6 C 0,0 km/h (0 Bft) 98 %
14.06.2017 01:40 12,4 C 12,4 C 12,6 C 86 % 1018,0 hPa 0,0 l/m 0,0 km/h (0 Bft) N 0 0 min 0,000 mm 0 W/m 10,1 C 12,4 C 0,0 km/h (0 Bft) 98 %
14.06.2017 01:50 12,3 C 12,3 C 12,4 C 87 % 1018,0 hPa 0,0 l/m 0,0 km/h (0 Bft) N 0 0 min 0,000 mm 0 W/m 10,2 C 12,3 C 0,0 km/h (0 Bft) 97 %
14.06.2017 02:00 12,1 C 12,1 C 12,3 C 87 % 1018,0 hPa 0,0 l/m 0,0 km/h (0 Bft) N 0 0 min 0,000 mm 0 W/m 10,0 C 12,1 C 0,0 km/h (0 Bft) 98 %
14.06.2017 02:10 12,0 C 12,0 C 12,1 C 88 % 1018,0 hPa 0,0 l/m 0,0 km/h (0 Bft) N 0 0 min 0,000 mm 0 W/m 10,1 C 12,0 C 0,0 km/h (0 Bft) 97 %
14.06.2017 02:20 11,9 C 11,9 C 12,0 C 87 % 1017,9 hPa 0,0 l/m 0,0 km/h (0 Bft) N 0 0 min 0,000 mm 0 W/m 9,8 C 11,9 C 0,0 km/h (0 Bft) 97 %
14.06.2017 02:30 11,9 C 11,9 C 11,9 C 88 % 1017,8 hPa 0,0 l/m 0,0 km/h (0 Bft) N 0 0 min 0,000 mm 0 W/m 10,0 C 11,9 C 0,0 km/h (0 Bft) 98 %
14.06.2017 02:40 11,8 C 11,8 C 11,9 C 88 % 1017,9 hPa 0,0 l/m 0,0 km/h (0 Bft) N 0 0 min 0,000 mm 0 W/m 9,9 C 11,8 C 0,0 km/h (0 Bft) 98 %
14.06.2017 02:50 11,7 C 11,7 C 11,8 C 88 % 1017,9 hPa 0,0 l/m 0,0 km/h (0 Bft) N 0 0 min 0,000 mm 0 W/m 9,8 C 11,7 C 0,0 km/h (0 Bft) 98 %
14.06.2017 03:00 11,4 C 11,4 C 11,7 C 88 % 1017,8 hPa 0,0 l/m 0,0 km/h (0 Bft) N 0 0 min 0,000 mm 0 W/m 9,5 C 11,4 C 0,0 km/h (0 Bft) 97 %
14.06.2017 03:10 11,3 C 11,3 C 11,4 C 88 % 1017,7 hPa 0,0 l/m 0,0 km/h (0 Bft) N 0 0 min 0,000 mm 0 W/m 9,4 C 11,3 C 0,0 km/h (0 Bft) 97 %
14.06.2017 03:20 11,1 C 11,1 C 11,3 C 89 % 1017,6 hPa 0,0 l/m 0,0 km/h (0 Bft) N 0 0 min 0,000 mm 0 W/m 9,4 C 11,1 C 0,0 km/h (0 Bft) 98 %
14.06.2017 03:30 10,9 C 10,9 C 11,1 C 89 % 1017,6 hPa 0,0 l/m 0,0 km/h (0 Bft) N 0 0 min 0,000 mm 0 W/m 9,2 C 10,9 C 0,0 km/h (0 Bft) 98 %
14.06.2017 03:40 10,8 C 10,8 C 10,9 C 89 % 1017,7 hPa 0,0 l/m 0,0 km/h (0 Bft) N 0 0 min 0,000 mm 0 W/m 9,1 C 10,8 C 0,0 km/h (0 Bft) 98 %
14.06.2017 03:50 10,7 C 10,7 C 10,8 C 89 % 1017,6 hPa 0,0 l/m 0,0 km/h (0 Bft) N 0 0 min 0,000 mm 0 W/m 9,0 C 10,7 C 0,0 km/h (0 Bft) 98 %
14.06.2017 04:00 10,6 C 10,6 C 10,7 C 90 % 1017,6 hPa 0,0 l/m 0,0 km/h (0 Bft) N 0 0 min 0,000 mm 0 W/m 9,0 C 10,6 C 0,0 km/h (0 Bft) 98 %
14.06.2017 04:10 10,4 C 10,4 C 10,6 C 90 % 1017,7 hPa 0,0 l/m 1,6 km/h (1 Bft) W 270 0 min 0,000 mm 0 W/m 8,8 C 10,4 C 4,8 km/h (1 Bft) 98 %
14.06.2017 04:20 10,4 C 10,4 C 10,4 C 90 % 1017,6 hPa 0,0 l/m 1,6 km/h (1 Bft) W 270 0 min 0,000 mm 0 W/m 8,8 C 10,4 C 3,2 km/h (1 Bft) 98 %
14.06.2017 04:30 10,4 C 10,4 C 10,4 C 90 % 1017,8 hPa 0,0 l/m 0,0 km/h (0 Bft) N 0 0 min 0,000 mm 0 W/m 8,8 C 10,4 C 0,0 km/h (0 Bft) 98 %
14.06.2017 04:40 10,6 C 10,4 C 10,6 C 90 % 1018,0 hPa 0,0 l/m 0,0 km/h (0 Bft) N 0 0 min 0,000 mm 0 W/m 9,0 C 10,6 C 0,0 km/h (0 Bft) 99 %
14.06.2017 04:50 10,6 C 10,6 C 10,6 C 90 % 1017,9 hPa 0,0 l/m 0,0 km/h (0 Bft) N 0 0 min 0,000 mm 0 W/m 9,0 C 10,6 C 0,0 km/h (0 Bft) 99 %
14.06.2017 05:00 10,6 C 10,6 C 10,6 C 90 % 1018,0 hPa 0,0 l/m 0,0 km/h (0 Bft) N 0 0 min 0,000 mm 0 W/m 9,0 C 10,6 C 0,0 km/h (0 Bft) 100 %
14.06.2017 05:10 10,6 C 10,6 C 10,7 C 90 % 1018,2 hPa 0,0 l/m 0,0 km/h (0 Bft) N 0 0 min 0,000 mm 0 W/m 9,0 C 10,6 C 0,0 km/h (0 Bft) 99 %
14.06.2017 05:20 10,4 C 10,4 C 10,6 C 90 % 1018,3 hPa 0,0 l/m 0,0 km/h (0 Bft) N 0 0 min 0,000 mm 0 W/m 8,8 C 10,4 C 0,0 km/h (0 Bft) 99 %
14.06.2017 05:30 10,3 C 10,3 C 10,4 C 90 % 1018,2 hPa 0,0 l/m 0,0 km/h (0 Bft) N 0 0 min 0,000 mm 7 W/m 8,7 C 10,3 C 0,0 km/h (0 Bft) 100 %
14.06.2017 05:40 10,1 C 10,1 C 10,3 C 90 % 1018,0 hPa 0,0 l/m 0,0 km/h (0 Bft) N 0 0 min 0,000 mm 11 W/m 8,5 C 10,1 C 0,0 km/h (0 Bft) 100 %
14.06.2017 05:50 10,0 C 10,0 C 10,1 C 90 % 1017,9 hPa 0,0 l/m 1,6 km/h (1 Bft) W 270 0 min 0,000 mm 14 W/m 8,4 C 10,0 C 4,8 km/h (1 Bft) 100 %
14.06.2017 06:00 9,9 C 9,9 C 10,0 C 90 % 1017,9 hPa 0,0 l/m 1,6 km/h (1 Bft) W 270 0 min 0,000 mm 16 W/m 8,3 C 9,9 C 3,2 km/h (1 Bft) 99 %
14.06.2017 06:10 9,9 C 9,8 C 9,9 C 90 % 1017,9 hPa 0,0 l/m 0,0 km/h (0 Bft) N 0 0 min 0,000 mm 18 W/m 8,3 C 9,9 C 0,0 km/h (0 Bft) 99 %
14.06.2017 06:20 9,9 C 9,8 C 9,9 C 90 % 1018,0 hPa 0,0 l/m 0,0 km/h (0 Bft) N 0 0 min 0,000 mm 21 W/m 8,3 C 9,9 C 0,0 km/h (0 Bft) 90 %
14.06.2017 06:30 10,0 C 9,9 C 10,0 C 90 % 1018,3 hPa 0,0 l/m 0,0 km/h (0 Bft) N 0 0 min 0,000 mm 25 W/m 8,4 C 10,0 C 0,0 km/h (0 Bft) 99 %
14.06.2017 06:40 10,1 C 10,0 C 10,1 C 90 % 1018,5 hPa 0,0 l/m 0,0 km/h (0 Bft) N 0 0 min 0,000 mm 32 W/m 8,5 C 10,1 C 0,0 km/h (0 Bft) 100 %
14.06.2017 06:50 10,3 C 10,1 C 10,3 C 90 % 1018,5 hPa 0,0 l/m 0,0 km/h (0 Bft) N 0 0 min 0,000 mm 37 W/m 8,7 C 10,3 C 0,0 km/h (0 Bft) 99 %
14.06.2017 07:00 10,5 C 10,3 C 10,5 C 90 % 1018,3 hPa 0,0 l/m 0,0 km/h (0 Bft) N 0 0 min 0,025 mm 42 W/m 8,9 C 10,5 C 0,0 km/h (0 Bft) 100 %
14.06.2017 07:10 10,8 C 10,5 C 10,8 C 91 % 1018,3 hPa 0,0 l/m 0,0 km/h (0 Bft) N 0 0 min 0,000 mm 47 W/m 9,4 C 10,8 C 0,0 km/h (0 Bft) 100 %
14.06.2017 07:20 11,1 C 10,7 C 11,1 C 91 % 1018,3 hPa 0,0 l/m 0,0 km/h (0 Bft) N 0 0 min 0,000 mm 54 W/m 9,7 C 11,1 C 0,0 km/h (0 Bft) 100 %
14.06.2017 07:30 11,4 C 11,1 C 11,4 C 91 % 1018,3 hPa 0,0 l/m 0,0 km/h (0 Bft) N 0 0 min 0,000 mm 62 W/m 10,0 C 11,4 C 0,0 km/h (0 Bft) 99 %
14.06.2017 07:40 11,8 C 11,4 C 11,8 C 91 % 1018,2 hPa 0,0 l/m 0,0 km/h (0 Bft) N 0 0 min 0,000 mm 81 W/m 10,4 C 11,8 C 0,0 km/h (0 Bft) 100 %
14.06.2017 07:50 12,2 C 11,8 C 12,2 C 91 % 1018,2 hPa 0,0 l/m 0,0 km/h (0 Bft) W 270 0 min 0,000 mm 88 W/m 10,8 C 12,2 C 4,8 km/h (1 Bft) 100 %
14.06.2017 08:00 12,6 C 12,2 C 12,6 C 90 % 1018,2 hPa 0,0 l/m 0,0 km/h (0 Bft) N 0 0 min 0,025 mm 93 W/m 11,0 C 12,6 C 0,0 km/h (0 Bft) 100 %
14.06.2017 08:10 13,1 C 12,6 C 13,1 C 90 % 1018,2 hPa 0,0 l/m 0,0 km/h (0 Bft) W 270 0 min 0,000 mm 105 W/m 11,5 C 13,1 C 4,8 km/h (1 Bft) 100 %
14.06.2017 08:20 13,6 C 13,1 C 13,6 C 89 % 1018,0 hPa 0,0 l/m 0,0 km/h (0 Bft) N 0 10 min 0,000 mm 359 W/m 11,8 C 13,6 C 0,0 km/h (0 Bft) 100 %
14.06.2017 08:30 14,5 C 13,6 C 14,5 C 88 % 1018,0 hPa 0,0 l/m 0,0 km/h (0 Bft) N 0 10 min 0,000 mm 390 W/m 12,5 C 14,5 C 0,0 km/h (0 Bft) 100 %
14.06.2017 08:40 15,4 C 14,6 C 15,4 C 84 % 1018,1 hPa 0,0 l/m 0,0 km/h (0 Bft) N-NO 22 10 min 0,000 mm 441 W/m 12,7 C 15,4 C 1,6 km/h (1 Bft) 100 %
14.06.2017 08:50 16,6 C 15,5 C 16,6 C 80 % 1018,2 hPa 0,0 l/m 0,0 km/h (0 Bft) O-SO 112 10 min 0,000 mm 496 W/m 13,1 C 16,6 C 4,8 km/h (1 Bft) 100 %
14.06.2017 09:00 17,5 C 16,6 C 17,5 C 77 % 1018,3 hPa 0,0 l/m 0,0 km/h (0 Bft) O-SO 112 10 min 0,178 mm 526 W/m 13,4 C 17,5 C 1,6 km/h (1 Bft) 100 %
14.06.2017 09:10 18,1 C 17,5 C 18,1 C 76 % 1018,3 hPa 0,0 l/m 0,0 km/h (0 Bft) N-NW 337 10 min 0,000 mm 570 W/m 13,8 C 18,1 C 8,0 km/h (2 Bft) 100 %
14.06.2017 09:20 18,7 C 18,2 C 18,7 C 74 % 1018,3 hPa 0,0 l/m 0,0 km/h (0 Bft) N-NW 337 10 min 0,000 mm 603 W/m 14,0 C 18,7 C 8,0 km/h (2 Bft) 100 %
14.06.2017 09:30 19,3 C 18,8 C 19,3 C 72 % 1018,2 hPa 0,0 l/m 0,0 km/h (0 Bft) NW 315 10 min 0,000 mm 640 W/m 14,1 C 19,3 C 6,4 km/h (2 Bft) 99 %
14.06.2017 09:40 19,6 C 19,3 C 19,6 C 68 % 1018,2 hPa 0,0 l/m 0,0 km/h (0 Bft) O 90 10 min 0,000 mm 679 W/m 13,5 C 19,6 C 4,8 km/h (1 Bft) 100 %
14.06.2017 09:50 19,9 C 19,6 C 19,9 C 66 % 1018,2 hPa 0,0 l/m 0,0 km/h (0 Bft) SO 135 10 min 0,000 mm 635 W/m 13,4 C 19,9 C 6,4 km/h (2 Bft) 100 %
14.06.2017 10:00 20,1 C 19,9 C 20,2 C 66 % 1018,1 hPa 0,0 l/m 3,2 km/h (1 Bft) O-SO 112 10 min 0,330 mm 701 W/m 13,5 C 20,1 C 16,1 km/h (3 Bft) 100 %
14.06.2017 10:10 20,4 C 20,1 C 20,4 C 64 % 1018,1 hPa 0,0 l/m 3,2 km/h (1 Bft) O-SO 112 10 min 0,000 mm 726 W/m 13,4 C 20,4 C 14,5 km/h (3 Bft) 100 %
14.06.2017 10:20 20,4 C 20,3 C 20,4 C 68 % 1017,9 hPa 0,0 l/m 3,2 km/h (1 Bft) SO 135 10 min 0,000 mm 763 W/m 14,3 C 20,4 C 11,3 km/h (2 Bft) 100 %
14.06.2017 10:30 20,9 C 20,5 C 20,9 C 62 % 1017,9 hPa 0,0 l/m 1,6 km/h (1 Bft) SO 135 10 min 0,000 mm 747 W/m 13,3 C 20,9 C 9,7 km/h (2 Bft) 100 %
14.06.2017 10:40 21,3 C 20,9 C 21,3 C 64 % 1018,0 hPa 0,0 l/m 0,0 km/h (0 Bft) SO 135 10 min 0,000 mm 803 W/m 14,2 C 21,3 C 1,6 km/h (1 Bft) 100 %
14.06.2017 10:50 21,4 C 21,3 C 21,4 C 62 % 1018,1 hPa 0,0 l/m 4,8 km/h (1 Bft) SO 135 10 min 0,000 mm 807 W/m 13,8 C 21,4 C 11,3 km/h (2 Bft) 100 %
14.06.2017 11:00 21,8 C 21,4 C 21,8 C 61 % 1018,2 hPa 0,0 l/m 0,0 km/h (0 Bft) SO 135 10 min 0,432 mm 828 W/m 13,9 C 21,8 C 4,8 km/h (1 Bft) 100 %
14.06.2017 11:10 22,1 C 21,8 C 22,1 C 63 % 1018,2 hPa 0,0 l/m 4,8 km/h (1 Bft) O-SO 112 10 min 0,000 mm 842 W/m 14,7 C 22,1 C 14,5 km/h (3 Bft) 100 %
14.06.2017 11:20 22,0 C 21,9 C 22,1 C 61 % 1018,0 hPa 0,0 l/m 3,2 km/h (1 Bft) SO 135 10 min 0,000 mm 846 W/m 14,1 C 22,0 C 9,7 km/h (2 Bft) 100 %
14.06.2017 11:30 22,3 C 22,0 C 22,3 C 57 % 1017,8 hPa 0,0 l/m 4,8 km/h (1 Bft) O-SO 112 10 min 0,000 mm 875 W/m 13,4 C 22,3 C 11,3 km/h (2 Bft) 100 %
14.06.2017 11:40 22,4 C 22,3 C 22,4 C 61 % 1017,7 hPa 0,0 l/m 3,2 km/h (1 Bft) O-SO 112 10 min 0,000 mm 881 W/m 14,5 C 22,4 C 9,7 km/h (2 Bft) 100 %
14.06.2017 11:50 22,7 C 22,4 C 22,7 C 59 % 1017,6 hPa 0,0 l/m 1,6 km/h (1 Bft) N-NW 337 10 min 0,000 mm 891 W/m 14,3 C 22,7 C 11,3 km/h (2 Bft) 100 %
14.06.2017 12:00 23,2 C 22,7 C 23,2 C 57 % 1017,5 hPa 0,0 l/m 1,6 km/h (1 Bft) SO 135 10 min 0,533 mm 909 W/m 14,2 C 23,2 C 8,0 km/h (2 Bft) 100 %
14.06.2017 12:10 23,6 C 23,2 C 23,6 C 60 % 1017,5 hPa 0,0 l/m 0,0 km/h (0 Bft) O-SO 112 10 min 0,000 mm 919 W/m 15,4 C 23,6 C 4,8 km/h (1 Bft) 100 %
14.06.2017 12:20 24,1 C 23,6 C 24,1 C 60 % 1017,3 hPa 0,0 l/m 0,0 km/h (0 Bft) NW 315 10 min 0,000 mm 925 W/m 15,8 C 24,1 C 1,6 km/h (1 Bft) 100 %
14.06.2017 12:30 24,2 C 24,1 C 24,2 C 55 % 1017,2 hPa 0,0 l/m 0,0 km/h (0 Bft) O-SO 112 10 min 0,000 mm 930 W/m 14,6 C 24,2 C 8,0 km/h (2 Bft) 100 %
14.06.2017 12:40 24,1 C 24,0 C 24,2 C 56 % 1017,2 hPa 0,0 l/m 3,2 km/h (1 Bft) N-NW 337 10 min 0,000 mm 933 W/m 14,8 C 24,1 C 14,5 km/h (3 Bft) 100 %
14.06.2017 12:50 24,2 C 24,1 C 24,2 C 56 % 1017,3 hPa 0,0 l/m 1,6 km/h (1 Bft) SW 225 10 min 0,000 mm 949 W/m 14,9 C 24,2 C 6,4 km/h (2 Bft) 100 %
14.06.2017 13:00 24,4 C 24,2 C 24,4 C 57 % 1017,2 hPa 0,0 l/m 1,6 km/h (1 Bft) SO 135 10 min 0,559 mm 946 W/m 15,3 C 24,4 C 9,7 km/h (2 Bft) 100 %
14.06.2017 13:10 24,6 C 24,4 C 24,6 C 55 % 1017,2 hPa 0,0 l/m 0,0 km/h (0 Bft) N 360 10 min 0,000 mm 951 W/m 14,9 C 24,6 C 8,0 km/h (2 Bft) 100 %
14.06.2017 13:20 24,6 C 24,6 C 24,7 C 55 % 1017,0 hPa 0,0 l/m 0,0 km/h (0 Bft) O-SO 112 10 min 0,000 mm 946 W/m 14,9 C 24,6 C 6,4 km/h (2 Bft) 100 %
14.06.2017 13:30 24,5 C 24,5 C 24,6 C 53 % 1017,0 hPa 0,0 l/m 3,2 km/h (1 Bft) O-SO 112 10 min 0,000 mm 953 W/m 14,3 C 24,5 C 14,5 km/h (3 Bft) 100 %
14.06.2017 13:40 24,8 C 24,5 C 24,8 C 57 % 1016,9 hPa 0,0 l/m 1,6 km/h (1 Bft) NW 315 10 min 0,000 mm 946 W/m 15,7 C 24,8 C 12,9 km/h (3 Bft) 100 %
14.06.2017 13:50 24,9 C 24,8 C 24,9 C 55 % 1016,7 hPa 0,0 l/m 0,0 km/h (0 Bft) N-NW 337 10 min 0,000 mm 946 W/m 15,2 C 24,9 C 6,4 km/h (2 Bft) 100 %
14.06.2017 14:00 24,9 C 24,8 C 25,0 C 53 % 1016,6 hPa 0,0 l/m 3,2 km/h (1 Bft) O-SO 112 10 min 0,584 mm 940 W/m 14,6 C 24,9 C 11,3 km/h (2 Bft) 100 %
14.06.2017 14:10 24,9 C 24,8 C 24,9 C 51 % 1016,5 hPa 0,0 l/m 1,6 km/h (1 Bft) N 360 10 min 0,000 mm 933 W/m 14,1 C 24,9 C 9,7 km/h (2 Bft) 100 %
14.06.2017 14:20 25,2 C 24,9 C 25,2 C 53 % 1016,4 hPa 0,0 l/m 0,0 km/h (0 Bft) W 270 10 min 0,000 mm 928 W/m 14,9 C 25,2 C 8,0 km/h (2 Bft) 100 %
14.06.2017 14:30 25,3 C 25,2 C 25,3 C 54 % 1016,2 hPa 0,0 l/m 0,0 km/h (0 Bft) NW 315 10 min 0,000 mm 916 W/m 15,3 C 25,3 C 6,4 km/h (2 Bft) 100 %
14.06.2017 14:40 25,2 C 25,1 C 25,4 C 54 % 1016,2 hPa 0,0 l/m 1,6 km/h (1 Bft) N-NW 337 10 min 0,000 mm 904 W/m 15,2 C 25,2 C 11,3 km/h (2 Bft) 100 %
14.06.2017 14:50 25,2 C 25,2 C 25,2 C 52 % 1016,3 hPa 0,0 l/m 0,0 km/h (0 Bft) O-SO 112 10 min 0,000 mm 896 W/m 14,6 C 25,2 C 6,4 km/h (2 Bft) 100 %
14.06.2017 15:00 25,5 C 25,2 C 25,5 C 51 % 1016,3 hPa 0,0 l/m 0,0 km/h (0 Bft) N 360 10 min 0,559 mm 884 W/m 14,6 C 25,5 C 4,8 km/h (1 Bft) 100 %
14.06.2017 15:10 25,4 C 25,4 C 25,6 C 51 % 1016,2 hPa 0,0 l/m 0,0 km/h (0 Bft) N-NW 337 10 min 0,000 mm 865 W/m 14,5 C 25,4 C 6,4 km/h (2 Bft) 100 %
14.06.2017 15:20 25,6 C 25,4 C 25,6 C 52 % 1016,2 hPa 0,0 l/m 1,6 km/h (1 Bft) NW 315 10 min 0,000 mm 782 W/m 15,0 C 25,6 C 9,7 km/h (2 Bft) 99 %
14.06.2017 15:30 25,7 C 25,6 C 25,7 C 52 % 1016,1 hPa 0,0 l/m 1,6 km/h (1 Bft) NW 315 10 min 0,000 mm 311 W/m 15,1 C 25,7 C 9,7 km/h (2 Bft) 100 %
14.06.2017 15:40 25,9 C 25,7 C 25,9 C 48 % 1015,9 hPa 0,0 l/m 4,8 km/h (1 Bft) NW 315 10 min 0,000 mm 195 W/m 14,0 C 25,9 C 9,7 km/h (2 Bft) 100 %
14.06.2017 15:50 25,7 C 25,7 C 25,9 C 51 % 1016,1 hPa 0,0 l/m 3,2 km/h (1 Bft) NW 315 10 min 0,000 mm 788 W/m 14,8 C 25,7 C 9,7 km/h (2 Bft) 100 %
14.06.2017 16:00 25,7 C 25,7 C 25,7 C 51 % 1015,8 hPa 0,0 l/m 0,0 km/h (0 Bft) NO 45 10 min 0,279 mm 780 W/m 14,8 C 25,7 C 6,4 km/h (2 Bft) 100 %
14.06.2017 16:10 25,6 C 25,6 C 25,8 C 50 % 1015,7 hPa 0,0 l/m 1,6 km/h (1 Bft) S-SO 157 10 min 0,000 mm 770 W/m 14,4 C 25,6 C 8,0 km/h (2 Bft) 99 %
14.06.2017 16:20 25,6 C 25,6 C 25,6 C 51 % 1015,6 hPa 0,0 l/m 1,6 km/h (1 Bft) N-NW 337 10 min 0,000 mm 752 W/m 14,7 C 25,6 C 8,0 km/h (2 Bft) 100 %
14.06.2017 16:30 25,4 C 25,4 C 25,7 C 50 % 1015,5 hPa 0,0 l/m 3,2 km/h (1 Bft) O-SO 112 10 min 0,000 mm 712 W/m 14,2 C 25,4 C 17,7 km/h (3 Bft) 99 %
14.06.2017 16:40 25,2 C 25,2 C 25,4 C 50 % 1015,4 hPa 0,0 l/m 1,6 km/h (1 Bft) O-SO 112 10 min 0,000 mm 357 W/m 14,0 C 25,2 C 9,7 km/h (2 Bft) 99 %
14.06.2017 16:50 25,5 C 25,2 C 25,5 C 51 % 1015,4 hPa 0,0 l/m 0,0 km/h (0 Bft) SO 135 0 min 0,000 mm 76 W/m 14,6 C 25,5 C 3,2 km/h (1 Bft) 100 %
14.06.2017 17:00 25,6 C 25,4 C 25,6 C 53 % 1015,2 hPa 0,0 l/m 0,0 km/h (0 Bft) O 90 0 min 0,254 mm 69 W/m 15,3 C 25,6 C 4,8 km/h (1 Bft) 100 %
14.06.2017 17:10 25,6 C 25,6 C 25,6 C 50 % 1015,2 hPa 0,0 l/m 1,6 km/h (1 Bft) N-NW 337 0 min 0,000 mm 67 W/m 14,4 C 25,6 C 8,0 km/h (2 Bft) 100 %
14.06.2017 17:20 25,6 C 25,6 C 25,7 C 48 % 1015,0 hPa 0,0 l/m 0,0 km/h (0 Bft) N-NW 337 0 min 0,000 mm 69 W/m 13,8 C 25,6 C 1,6 km/h (1 Bft) 100 %
14.06.2017 17:30 25,6 C 25,6 C 25,7 C 52 % 1014,8 hPa 0,0 l/m 0,0 km/h (0 Bft) NW 315 0 min 0,000 mm 63 W/m 15,0 C 25,6 C 8,0 km/h (2 Bft) 100 %
14.06.2017 17:40 25,3 C 25,2 C 25,6 C 49 % 1014,7 hPa 0,0 l/m 1,6 km/h (1 Bft) O-SO 112 0 min 0,000 mm 62 W/m 13,8 C 25,3 C 11,3 km/h (2 Bft) 99 %
14.06.2017 17:50 25,0 C 25,0 C 25,3 C 52 % 1014,6 hPa 0,0 l/m 0,0 km/h (0 Bft) N-NW 337 0 min 0,000 mm 60 W/m 14,4 C 25,0 C 6,4 km/h (2 Bft) 100 %
14.06.2017 18:00 25,1 C 25,0 C 25,1 C 55 % 1014,6 hPa 0,0 l/m 0,0 km/h (0 Bft) O-SO 112 0 min 0,051 mm 60 W/m 15,4 C 25,1 C 3,2 km/h (1 Bft) 98 %
14.06.2017 18:10 25,1 C 25,1 C 25,1 C 52 % 1014,5 hPa 0,0 l/m 0,0 km/h (0 Bft) N 0 0 min 0,000 mm 63 W/m 14,5 C 25,1 C 0,0 km/h (0 Bft) 99 %
14.06.2017 18:20 25,0 C 25,0 C 25,1 C 52 % 1014,4 hPa 0,0 l/m 0,0 km/h (0 Bft) N-NO 22 0 min 0,000 mm 67 W/m 14,4 C 25,0 C 1,6 km/h (1 Bft) 100 %
14.06.2017 18:30 24,9 C 24,9 C 25,0 C 53 % 1014,4 hPa 0,0 l/m 0,0 km/h (0 Bft) N 360 0 min 0,000 mm 53 W/m 14,6 C 24,9 C 1,6 km/h (1 Bft) 100 %
14.06.2017 18:40 24,9 C 24,9 C 25,0 C 54 % 1014,3 hPa 0,0 l/m 0,0 km/h (0 Bft) NW 315 0 min 0,000 mm 53 W/m 14,9 C 24,9 C 3,2 km/h (1 Bft) 100 %
14.06.2017 18:50 24,8 C 24,8 C 24,9 C 56 % 1014,2 hPa 0,0 l/m 0,0 km/h (0 Bft) N-NW 337 0 min 0,000 mm 51 W/m 15,4 C 24,8 C 1,6 km/h (1 Bft) 100 %
14.06.2017 19:00 24,6 C 24,6 C 24,8 C 57 % 1014,1 hPa 0,0 l/m 0,0 km/h (0 Bft) N 0 0 min 0,051 mm 49 W/m 15,5 C 24,6 C 0,0 km/h (0 Bft) 100 %
14.06.2017 19:10 24,4 C 24,4 C 24,6 C 55 % 1014,2 hPa 0,0 l/m 0,0 km/h (0 Bft) N-NW 337 0 min 0,000 mm 63 W/m 14,8 C 24,4 C 1,6 km/h (1 Bft) 99 %
14.06.2017 19:30 24,0 C 24,0 C 24,6 C 58 % 1014,0 hPa 0,0 l/m 0,0 km/h (0 Bft) N-NW 341 20 min 0,000 mm 165 W/m 15,2 C 24,0 C 1,6 km/h (1 Bft) 97 %
14.06.2017 19:40 23,7 C 23,7 C 24,0 C 59 % 1014,0 hPa 0,0 l/m 0,0 km/h (0 Bft) N-NW 341 10 min 0,000 mm 181 W/m 15,2 C 23,7 C 1,6 km/h (1 Bft) 98 %
14.06.2017 19:50 23,4 C 23,4 C 23,7 C 60 % 1014,1 hPa 0,0 l/m 0,1 km/h (0 Bft) NW 323 0 min 0,000 mm 37 W/m 15,2 C 23,4 C 3,2 km/h (1 Bft) 87 %
14.06.2017 20:00 23,1 C 23,1 C 23,4 C 62 % 1014,1 hPa 0,0 l/m 0,0 km/h (0 Bft) NW 323 0 min 0,000 mm 33 W/m 15,4 C 23,1 C 1,6 km/h (1 Bft) 97 %
14.06.2017 20:10 22,8 C 22,8 C 23,1 C 62 % 1014,2 hPa 0,0 l/m 0,0 km/h (0 Bft) NW 323 0 min 0,027 mm 30 W/m 15,1 C 22,8 C 1,6 km/h (1 Bft) 97 %
14.06.2017 20:20 22,4 C 22,4 C 22,8 C 63 % 1014,2 hPa 0,0 l/m 0,0 km/h (0 Bft) NW 323 0 min 0,000 mm 26 W/m 15,0 C 22,4 C 0,0 km/h (0 Bft) 98 %
14.06.2017 20:30 22,2 C 22,2 C 22,4 C 64 % 1014,2 hPa 0,0 l/m 0,0 km/h (0 Bft) NW 323 0 min 0,000 mm 25 W/m 15,1 C 22,2 C 0,0 km/h (0 Bft) 97 %
14.06.2017 20:40 21,8 C 21,8 C 22,2 C 65 % 1014,1 hPa 0,0 l/m 0,0 km/h (0 Bft) NW 323 0 min 0,000 mm 21 W/m 14,9 C 21,8 C 0,0 km/h (0 Bft) 97 %
14.06.2017 20:50 21,5 C 21,5 C 21,8 C 66 % 1014,2 hPa 0,0 l/m 0,0 km/h (0 Bft) NW 323 0 min 0,000 mm 18 W/m 14,9 C 21,5 C 0,0 km/h (0 Bft) 97 %
14.06.2017 21:00 21,1 C 21,1 C 21,5 C 66 % 1014,2 hPa 0,0 l/m 0,0 km/h (0 Bft) NW 323 0 min 0,000 mm 14 W/m 14,5 C 21,1 C 0,0 km/h (0 Bft) 98 %
14.06.2017 21:10 20,6 C 20,6 C 21,0 C 68 % 1014,3 hPa 0,0 l/m 0,0 km/h (0 Bft) N 0 0 min 0,000 mm 12 W/m 14,5 C 20,6 C 0,0 km/h (0 Bft) 99 %
14.06.2017 21:20 20,1 C 20,1 C 20,6 C 70 % 1014,3 hPa 0,0 l/m 0,0 km/h (0 Bft) N 0 0 min 0,000 mm 9 W/m 14,5 C 20,1 C 0,0 km/h (0 Bft) 100 %
14.06.2017 21:30 19,6 C 19,6 C 20,1 C 70 % 1014,4 hPa 0,0 l/m 0,0 km/h (0 Bft) N 0 0 min 0,000 mm 5 W/m 14,0 C 19,6 C 0,0 km/h (0 Bft) 100 %
14.06.2017 21:40 19,1 C 19,1 C 19,6 C 69 % 1014,6 hPa 0,0 l/m 0,0 km/h (0 Bft) N 0 0 min 0,000 mm 0 W/m 13,3 C 19,1 C 0,0 km/h (0 Bft) 100 %
14.06.2017 21:50 18,8 C 18,8 C 19,6 C 70 % 1014,6 hPa 0,0 l/m 0,0 km/h (0 Bft) NW 323 0 min 0,025 mm 0 W/m 13,2 C 18,8 C 0,0 km/h (0 Bft) 97 %
14.06.2017 22:00 18,5 C 18,5 C 18,8 C 71 % 1014,7 hPa 0,0 l/m 0,0 km/h (0 Bft) NW 323 0 min 0,000 mm 0 W/m 13,1 C 18,5 C 0,0 km/h (0 Bft) 98 %
14.06.2017 22:10 18,2 C 18,2 C 18,5 C 71 % 1014,8 hPa 0,0 l/m 0,0 km/h (0 Bft) NW 323 0 min 0,000 mm 0 W/m 12,9 C 18,2 C 0,0 km/h (0 Bft) 97 %
14.06.2017 22:20 18,1 C 18,1 C 18,2 C 72 % 1014,8 hPa 0,0 l/m 0,0 km/h (0 Bft) NW 323 0 min 0,000 mm 0 W/m 13,0 C 18,1 C 0,0 km/h (0 Bft) 97 %
14.06.2017 22:30 18,1 C 18,1 C 18,1 C 72 % 1014,9 hPa 0,0 l/m 0,0 km/h (0 Bft) NW 323 0 min 0,000 mm 0 W/m 13,0 C 18,1 C 0,0 km/h (0 Bft) 97 %
14.06.2017 22:40 17,8 C 17,8 C 18,1 C 73 % 1014,8 hPa 0,0 l/m 0,0 km/h (0 Bft) NW 323 0 min 0,000 mm 0 W/m 12,9 C 17,8 C 0,0 km/h (0 Bft) 97 %
14.06.2017 22:50 17,5 C 17,5 C 17,8 C 75 % 1014,8 hPa 0,0 l/m 0,0 km/h (0 Bft) N 0 0 min 0,000 mm 0 W/m 13,0 C 17,5 C 0,0 km/h (0 Bft) 100 %
14.06.2017 23:00 17,2 C 17,2 C 17,5 C 76 % 1014,7 hPa 0,0 l/m 0,0 km/h (0 Bft) N 0 0 min 0,025 mm 0 W/m 12,9 C 17,2 C 0,0 km/h (0 Bft) 100 %
14.06.2017 23:10 16,9 C 16,9 C 17,2 C 77 % 1014,7 hPa 0,0 l/m 0,0 km/h (0 Bft) N 0 0 min 0,000 mm 0 W/m 12,8 C 16,9 C 0,0 km/h (0 Bft) 100 %
14.06.2017 23:20 16,6 C 16,6 C 16,9 C 77 % 1014,7 hPa 0,0 l/m 0,0 km/h (0 Bft) N 0 0 min 0,000 mm 0 W/m 12,5 C 16,6 C 0,0 km/h (0 Bft) 100 %
14.06.2017 23:30 16,4 C 16,4 C 16,6 C 78 % 1014,8 hPa 0,0 l/m 0,0 km/h (0 Bft) N 0 0 min 0,000 mm 0 W/m 12,6 C 16,4 C 0,0 km/h (0 Bft) 100 %
14.06.2017 23:40 16,1 C 16,1 C 16,4 C 79 % 1014,7 hPa 0,0 l/m 0,0 km/h (0 Bft) NW 315 0 min 0,000 mm 0 W/m 12,5 C 16,1 C 3,2 km/h (1 Bft) 100 %
14.06.2017 23:50 15,8 C 15,8 C 16,1 C 80 % 1014,7 hPa 0,0 l/m 0,0 km/h (0 Bft) N 0 0 min 0,000 mm 0 W/m 12,4 C 15,8 C 0,0 km/h (0 Bft) 100 %
_ Min-Zeit 06:10 06:10 06:10 15:40 19:30 - 00:00 - - - - - 06:00 06:00 00:00 19:50
Minimum _ 9,8 C 9,8 C 9,9 C 48 % 1014,0 hPa - 0,0 km/h (0 Bft) - - - - - 8,3 C 9,9 C 0,0 km/h (0 Bft) 87 %
_ Max-Zeit 15:40 15:40 15:40 07:10 06:40 00:00 10:50 - - 19:30 14:00 13:30 12:20 15:40 16:30 07:00
Maximum _ 25,9 C 25,7 C 25,9 C 91 % 1018,5 hPa 0,0 l/m 4,8 km/h
SO (1 Bft)
- - 20 min 0,584 mm 953 W/m 15,8 C 25,9 C 17,7 km/h
NW (3 Bft)
100 %
Durchschnitt _ 18,4 C 18,3 C 18,6 C 71 % 1016,7 hPa #0,0 l/m 0,6 km/h (0 Bft) O-SO - #9:00 h #3,987 mm 430 W/m 12,6 C 18,4 C 3,6 km/h (1 Bft) 99 %
PRIVATE WETTERSTATION BILLIGHEIM-ALLFELD - www.neckar-odenwald-wetter.de - Holger Sonntag